Flag for Brazil Weather past 2 weeks in Santarém, Para, Brazil

Now
88 °F

Passing clouds.


Feels Like: 94 °F
Forecast: N/A
Wind: 10 mph from East

Location: Santarem-Aeroporto


UV Index: N/A

Visibility: N/A


Pressure: 29.80 "Hg

Humidity: 59%

Dew point: 72 °F

Location of SantarémLocation

Historic Weather in Santarém

°F

Santarém temperature yesterday

Maximum temperature yesterday: 90 °F (at 3:00 PM)
Minimum temperature yesterday: 73 °F (at 1:00 AM)
Average temperature yesterday: 81 °F

Past Weeks' High & Low Weather Summary

 TemperatureHumidityPressure
High90 °F (Apr 5, 2:00 PM)100% (Apr 11, 1:00 AM)29.98 "Hg (Apr 11, 1:00 AM)
Low39 °F (Apr 11, 1:00 AM)52% (Apr 10, 2:00 PM)29.71 "Hg (Apr 14, 5:00 PM)
Average81 °F76%29.86 "Hg
* Reported Apr 4 4:00 PM — Apr 19 4:00 PM, Santarém, Weather by CustomWeather, © 2014

Note: Actual official high and low records may vary slightly from our data, if they occured in-between our weather recording intervals... More about our weather records

Advertising

Historic Weather Conditions — Data for Previous 24 hours

 ConditionsComfort  
Time TempWeatherWind HumidityBarometerVisibility
4:00 PM
Apr 19
88 °FPassing clouds.10 mph59%29.80 "HgN/A
3:00 PM88 °FPassing clouds.10 mph59%29.83 "HgN/A
2:00 PM88 °FPassing clouds.12 mph62%29.86 "HgN/A
1:00 PM88 °FScattered clouds.13 mph66%29.89 "HgN/A
12:00 PM86 °FBroken clouds.9 mph70%29.95 "HgN/A
11:00 AM84 °FBroken clouds.9 mph74%29.95 "HgN/A
10:00 AM81 °FBroken clouds.9 mph79%29.95 "HgN/A
9:00 AM84 °FBroken clouds.8 mph74%29.92 "HgN/A
8:00 AM77 °FLight rain. Broken clouds.10 mph89%29.89 "Hg4 mi
7:00 AM77 °FBroken clouds.5 mph89%29.86 "HgN/A
6:00 AM75 °FPassing clouds.3 mph89%29.86 "HgN/A
5:00 AM77 °FPassing clouds.3 mph83%29.83 "HgN/A
4:00 AM77 °FPartly cloudy.5 mph89%29.83 "HgN/A
3:00 AM77 °FPartly cloudy.6 mph89%29.83 "HgN/A
2:00 AM77 °FPartly cloudy.3 mph89%29.86 "HgN/A
1:00 AM79 °FPassing clouds.5 mph84%29.86 "HgN/A
12:00 AM81 °FPassing clouds.5 mph79%29.89 "HgN/A
11:00 PM
Apr 18
81 °FPassing clouds.8 mph79%29.89 "HgN/A
10:00 PM82 °FPassing clouds.12 mph74%29.86 "HgN/A
9:00 PM82 °FPassing clouds.10 mph74%29.86 "HgN/A
8:00 PM82 °FPassing clouds.8 mph74%29.80 "HgN/A
7:00 PM82 °FPassing clouds.6 mph74%29.80 "HgN/A
6:00 PM84 °FBroken clouds.8 mph70%29.77 "HgN/A
5:00 PM88 °FBroken clouds.7 mph59%29.74 "HgN/A
Weather by CustomWeather, © 2014

See weather overview